Regional Weather Roundup
Issued by NWS

Home | Current Version | Previous Version | Graphics & Text | Print | Product List | Glossary On
Versions: 1 2 3 4 5 6 7 8 9 10 11 12 13 14 15 16 17 18 19 20 21 22 23 24 25 26 27 28 29 30 31 32 33 34 35 36 37 38 39 40 41 42 43 44 45 46 47 48 49 50
000
ASUS43 KMKX 141359
RWRWI

WISCONSIN REGIONAL WEATHER ROUNDUP
NATIONAL WEATHER SERVICE MILWAUKEE/SULLIVAN WI
800 AM CST THU DEC 14 2017

NOTE: "FAIR" INDICATES FEW OR NO CLOUDS BELOW 12,000 FEET WITH NO
SIGNIFICANT WEATHER AND/OR OBSTRUCTIONS TO VISIBILITY.

WIZ001-002-006>008-014>016-023>028-141500-
NORTHWEST WISCONSIN

CITY           SKY/WX    TMP DP  RH WIND       PRES   REMARKS
SUPERIOR ARPT  FLURRIES  14  12  92 W3        30.00S
ASHLAND        CLOUDY    11   7  84 SW8       30.00R WCI  -1
HAYWARD        CLOUDY    16  11  80 CALM      29.98R
SIREN          CLOUDY    17  14  90 CALM      30.00S
CUMBERLAND     FLURRIES  18  14  86 CALM      29.98S
RICE LAKE      CLOUDY    17  15  94 CALM      30.01S
CHETEK         CLOUDY    15  13  92 CALM      30.01R
LADYSMITH      CLOUDY    15  12  90 CALM      29.99R
EAU CLAIRE     NOT AVBL
MENOMONIE      LGT SNOW  16  14  93 CALM      30.03R
NEW RICHMOND   FLURRIES  17  15  91 CALM      30.01F
OSCEOLA        CLOUDY    17  17 100 W7        30.05R WCI   8
$$

WIZ003>005-009-010-017-018-141500-
NORTH CENTRAL WISCONSIN

CITY           SKY/WX    TMP DP  RH WIND       PRES   REMARKS
MANITOWISH WTR FLURRIES   9   8  98 W3        29.92R
ARBOR VITAE    CLOUDY    11   8  88 W6        29.92R WCI   2
WOODRUFF       CLOUDY    11   8  88 W6        29.92R WCI   2
RHINELANDER    CLOUDY     6   4  91 W7        29.93R WCI  -6
EAGLE RIVER    CLOUDY    11   7  83 W5        29.90R WCI   3
LAND O LAKES   FLURRIES  12   9  88 W3        29.91S
PHILLIPS       CLOUDY     5   3  91 CALM      29.94S
TOMAHAWK       CLOUDY     6   4  89 CALM      29.95S
MEDFORD        CLOUDY     8   5  89 CALM      29.95S
MERRILL        CLOUDY     6   3  88 CALM      29.98R
$$

WIZ029-030-035-036-043>047-141500-
CENTRAL WISCONSIN

CITY           SKY/WX    TMP DP  RH WIND       PRES   REMARKS
WAUSAU         CLOUDY     7   4  87 NW6       29.97R WCI  -3
MOSINEE        MOCLDY     7   5  92 NW5       29.99R WCI  -2
MARSHFIELD     CLOUDY     6   2  83 W8        29.98R WCI  -7
STEVENS POINT  CLOUDY    -4  -6  89 CALM      30.01R
WAUPACA        CLOUDY     6   1  83 CALM      30.03R
WAUTOMA        CLOUDY     0  -2  91 W3        30.04R
WISC RAPIDS    CLOUDY     0  -3  87 SW3       30.03R
CAMP DOUGLAS   PTCLDY     3   0  85 CALM      30.04R
$$

WIZ011>013-019>022-031-037>040-048>050-141500-
NORTHEAST WISCONSIN

CITY           SKY/WX    TMP DP  RH WIND       PRES   REMARKS
ANTIGO         CLOUDY     6   4  91 W5        29.94R WCI  -3
SHAWANO        CLOUDY     4  -1  82 CALM      30.01R
OCONTO         CLOUDY    -7 -11  83 CALM      30.01R
STURGEON BAY   CLOUDY    15   8  73 NW7       30.00R WCI   5
GREEN BAY      PTCLDY     4   0  83 W7        30.02R WCI  -8
MANITOWOC      MOCLDY     7   3  84 CALM      30.03R
APPLETON       PTCLDY     5   0  78 W9        29.99R WCI  -9
CLINTONVILLE   CLOUDY     3   0  85 CALM      30.01R
OSHKOSH        CLOUDY     7   4  87 W6        30.03R WCI  -3
$$

WIZ032>034-041-042-053>061-141500-
SOUTHWEST WISCONSIN

CITY           SKY/WX    TMP DP  RH WIND       PRES   REMARKS
LA CROSSE      CLEAR      9   5  84 CALM      30.07R
SPARTA         CLOUDY    -3  -6  87 CALM      30.06R
VIROQUA        CLEAR     10   9  97 CALM      30.01R
BOSCOBEL       CLOUDY     9   5  84 CALM      30.08S
PRAIRIE DU CHI PTCLDY    11   8  85 E3        30.07F
PLATTEVILLE    CLEAR     13  12  97 CALM      30.05R
$$

WIZ056-057-062-063-064-067-068-141500-
SOUTH CENTRAL WISCONSIN

CITY           SKY/WX    TMP DP  RH WIND       PRES   REMARKS
REEDSBURG      CLEAR      8   6  92 CALM      30.04S
BARABOO/DELLS  CLEAR      6   4  88 CALM      30.03S
LONE ROCK      NOT AVBL
MINERAL POINT  CLOUDY    14  12  92 CALM      30.02S
MADISON        CLOUDY    12  10  92 NW3       30.04R
MIDDLETON      CLOUDY    13  11  89 CALM      30.04S
WATERTOWN      CLOUDY     6   6  98 CALM      30.04R
MONROE         PTCLDY    14  10  85 NW6       30.03R WCI   5
JANESVILLE     MOCLDY    10   9  92 NW7       30.05R WCI   0
$$

WIZ051-052-058>065-066-070>072-141500-
SOUTHEAST WISCONSIN

CITY           SKY/WX    TMP DP  RH WIND       PRES   REMARKS
MILWAUKEE      PTCLDY    15  10  80 NW6       30.05R WCI   6
WAUKESHA       CLEAR      9   7  92 W7        30.05R WCI  -3
MILWAUKEE/TIMM CLEAR      7   1  78 W3        30.06R
RACINE         PTCLDY    13   8  81 NW9       30.06R WCI   1
BURLINGTON     PTCLDY    10   9  96 N3        30.04R
KENOSHA        MOCLDY    13   7  77 NW8       30.04R WCI   2
FOND DU LAC    CLOUDY     1  -3  83 S3        30.03R
SHEBOYGAN      CLOUDY     6   4  91 NW6       30.02R WCI  -4
WEST BEND      CLOUDY     7   5  92 CALM      30.03R
JUNEAU         CLOUDY     5   3  91 CALM      30.05R
$$

LSZ147-162-141500-
LAKE SUPERIOR

STATION/POSITION TIME  TEMP    WIND        PRES    WAVE
                       AIR SEA DIR/SP/G            HT/PER
                 (UTC) (F)     (DEG/KT/KT) (MB)    (FT/S)
DEVILS ISLAND    1300   18     290/  9/ 12 1016.3R
SAXON HARBOR     1330   13                 1015.2F
$$

LMZ867-665-643>646-141500-
LAKE MICHIGAN

STATION/POSITION TIME  TEMP    WIND        PRES    WAVE
                       AIR SEA DIR/SP/G            HT/PER
                 (UTC) (F)     (DEG/KT/KT) (MB)    (FT/S)
NORTHPORT PIER   1340   18     320/ 16/ 19 1014.9R
KEWAUNEE LAKESHO 1330    7     300/  5/  5 1015.1R
SHEBOYGAN LAKESH 1300   13     310/ 11/ 14 1017.2R
PORT WASHINGTON  1330   11     310/  6/  9 1018.3R
MILWAUKEE LAKESH 1330   15     310/  9/ 10   N/A
KENOSHA   LAKESH 1300   14     310/ 10/ 16 1016.6
$$

TC  - TEMPERATURE IN CELSIUS
VSB - VISIBILITY IN STATUTE MILES
WCI - WIND CHILL INDEX
HX  - HEAT INDEX





USA.gov is the U.S. government's official web portal to all federal, state and local government web resources and services.